Regional Weather Roundup
Issued by NWS

Home | Current Version | Previous Version | Graphics & Text | Print | Product List | Glossary On
Versions: 1 2 3 4 5 6 7 8 9 10 11 12 13 14 15 16 17 18 19 20 21 22 23 24 25 26 27 28 29 30 31 32 33 34 35 36 37 38 39 40 41 42 43 44 45 46 47 48 49 50
000
ASUS43 KOAX 210802
RWRNE

WEATHER ROUNDUP FOR NEBRASKA
NATIONAL WEATHER SERVICE OMAHA NE
300 AM CDT FRI JUL 21 2017

NOTES: SATELLITE DATA IS BEING USED TO AUGMENT CLOUD COVER ABOVE
       12000 FEET.
       "FAIR" INDICATES FEW OR NO CLOUDS BELOW 12,000 FEET WITH NO
       SIGNIFICANT WEATHER AND/OR OBSTRUCTIONS TO VISIBILITY.


NEZ001>004-019>022-054>056-210900-
NEBRASKA PANHANDLE

CITY           SKY/WX    TMP DP  RH WIND       PRES   REMARKS
SCOTTSBLUFF    MOCLDY    72  56  57 W8        30.00F
ALLIANCE       CLOUDY    73  62  68 NW13      29.96S
CHADRON        CLOUDY    72  60  66 SW7       29.93F
GORDON         FAIR      74  67  78 SW5       29.93F
KIMBALL        PTCLDY    70  57  62 NW14      30.09R
SIDNEY         CLOUDY    73  60  63 NW12      30.03R
$$

NEZ057>060-069>072-079>082-210900-
SOUTHWEST NEBRASKA

CITY           SKY/WX    TMP DP  RH WIND       PRES   REMARKS
NORTH PLATTE   CLOUDY    72  72 100 CALM      29.86S FOG
IMPERIAL       CLOUDY    73  67  81 W6        29.92R
LEXINGTON      CLEAR     78  62  57 S9        29.86S
MCCOOK         PTCLDY    78  59  51 S7        29.87S
OGALLALA       CLOUDY    72  68  88 CALM      29.91F
$$

NEZ005>010-023>029-035>040-094-210900-
NORTH CENTRAL NEBRASKA

CITY           SKY/WX    TMP DP  RH WIND       PRES   REMARKS
VALENTINE      CLOUDY    77  69  76 S6        29.86F
BROKEN BOW     CLOUDY    75  69  81 E5        29.85F
O`NEILL        CLOUDY    76  74  94 E7        29.83F
ORD            PTCLDY    77  68  73 SE6       29.83F
THEDFORD       CLEAR     73  72  96 CALM      29.87F FOG
$$

NEZ041-046>049-061>064-073>077-083>087-210900-
SOUTH CENTRAL NEBRASKA

CITY           SKY/WX    TMP DP  RH WIND       PRES   REMARKS
GRAND ISLAND   CLEAR     78  68  71 S13       29.87F
AURORA         CLEAR     78  68  71 S10       29.88F
HASTINGS       CLEAR     79  64  60 S10       29.90S
HEBRON         CLEAR     80  67  64 S8        29.90S
HOLDREGE       CLEAR     75  61  62 S9        29.88F
KEARNEY        CLEAR     78  63  59 S14       29.87F
YORK           CLEAR     77  68  73 S8        29.89S
$$

NEZ011>018-030>034-042>045-210900-
NORTHEAST NEBRASKA

CITY           SKY/WX    TMP DP  RH WIND       PRES   REMARKS
NORFOLK        CLOUDY    82  68  62 S13       29.84F
ALBION         PTCLDY    77  71  82 S7        29.85F
BLAIR          CLOUDY    85  69  59 S12       29.89F
COLUMBUS       CLOUDY    82  68  62 S12       29.87S
FREMONT        PTCLDY    85  67  55 S10       29.88F
TEKAMAH        CLOUDY    78  73  84 CALM      29.87F
WAYNE          CLOUDY    78  78  99 SE8       29.85F
$$

NEZ050>053-065>068-078-088>093-210900-
SOUTHEAST NEBRASKA

CITY           SKY/WX    TMP DP  RH WIND       PRES   REMARKS
LINCOLN        CLEAR     83  68  60 S13       29.89R
OMAHA EPPLEY   CLOUDY    87  71  58 S12       29.88F HX  93
BEATRICE       CLEAR     82  70  65 S12       29.90F
FALLS CITY     CLEAR     81  72  74 S8        29.91S
NEBRASKA CITY  CLEAR     81  74  81 SW9       29.91S
PLATTSMOUTH    CLOUDY    80  71  72 S10       29.90S
$$

NEZ044-045-051>053-067-210900-
OMAHA AREA

CITY           SKY/WX    TMP DP  RH WIND       PRES   REMARKS
OMAHA EPPLEY   CLOUDY    87  71  58 S12       29.88F HX  93
BLAIR          CLOUDY    85  69  59 S12       29.89F
FREMONT        PTCLDY    85  67  55 S10       29.88F
MILLARD        CLOUDY    86  73  64 S5        29.88F HX  92
OFFUTT AFB     CLOUDY    82  72  71 SE8       29.88F
PLATTSMOUTH    CLOUDY    80  71  72 S10       29.90S
WAHOO          FAIR      77  70  80 S5        29.88F
$$



USA.gov is the U.S. government's official web portal to all federal, state and local government web resources and services.